Página principal
METAR-TAF:

METAR-TAF

Aeroportos :

Houston, Texas, Estados Unidos

latitude: 29-48-18N, longitude: 095-53-52W, altura: 51 m

Observação actual do tempo

O boletim foi feito há 22 minutos, às 16:15 UTC
Vento 12 kt de norte
Temperatura 14°C
Humidade 94%
Pressão 1010 hPa
Visibilidade: 4.8 km
Encobertoa uma altura de 700 ft
neblina

METAR: KTME 171615Z AUTO 36012KT 3SM BR OVC007 14/13 A2983 RMK AO2

Hora: 09:37 (16:37 UTC)


TAF: em falta

Observações e previsões do tempo de mais de 4000 aeroportos (mensagens METAR e TAF).

As estações disponíveis são os pontos amarelos e vermelhos sobre o mapa.

Mova o rato sobre o mapa para ver o nome da estação.

Depois clique no ponto para visualizar as observações e previsões meteorológicas.

Para alterar o mapa : clique nos botões verdes com uma cruz preta para aumentar o zoom; no botão verde com uma pitada de zoom; ou nas setas verdes para mapas adjacentes.


METAR-TAF: